Location: ????????
(60.4333°N, 46.4710°E)
Time: 04:01:37
(UTC+00:00)

Okean-O - Pass Details

Date: 25 November 2020
Orbit: 639 x 640 km, 98.2° (Epoch: 19 January)

Event Time Altitude Azimuth Distance (km) Brightness Sun altitude
Rises 15:39:16 0° 180° (S) 2,939 6.0 -25.2°
Reaches altitude 10° 15:41:32 10° 186° (S) 2,034 5.2 -25.5°
Maximum altitude 15:45:48 46° 260° (W) 869 3.6 -26.0°
Drops below altitude 10° 15:50:07 10° 334° (NNW) 2,049 5.5 -26.5°
Sets 15:52:25 0° 341° (NNW) 2,964 6.3 -26.8°
